Regional Weather Roundup
Issued by NWS

Home | Current Version | Previous Version | Text Only | Print | Product List | Glossary On
Versions: 1 2 3 4 5 6 7 8 9 10 11 12 13 14 15 16 17 18 19 20 21 22 23 24 25 26 27 28 29 30 31 32 33 34 35 36 37 38 39 40 41 42 43 44 45 46 47 48 49 50
000
ASUS42 KKEY 280910
RWRKEY

FLORIDA REGIONAL WEATHER ROUNDUP FOR THE FLORIDA KEYS
NATIONAL WEATHER SERVICE KEY WEST FLORIDA
500 AM EDT TUE JUL 28 2015

...SOUTH FLORIDA AND THE KEYS...

CITY           SKY/WX    TMP DP  RH WIND       PRES   REMARKS
FORT MYERS     PTCLDY    77  75  93 CALM      29.96R
SW REGIONAL AP CLEAR     76  75  97 CALM      29.97R
NAPLES         PTCLDY    82  77  84 SW7       29.96F HX  90
MIAMI          PTCLDY    79  75  87 S5        29.98S
WEST KENDALL   PTCLDY    78  75  90 CALM      29.98S
HOMESTEAD      CLEAR     77  74  93 CALM      29.98S
MARATHON       PTCLDY    84  77  79 VRB5      29.98S HX  94
BOCA CHICA NAS CLEAR     82  74  76 S6        29.98S
KEY WEST INTL  CLEAR     84  74  71 S5        29.98F HX  91

...INTERNATIONAL WEATHER...

CITY           SKY/WX    TMP DP  RH WIND       PRES   REMARKS
NASSAU BAHAMAS PTCLDY    82  79  89 CALM      29.99F HX  93
CANCUN MEXICO  PTCLDY    82  75  78 E5        29.94F
COZUMEL MEXICO PTCLDY    73  73 100 CALM      29.94F

ADJACENT COASTAL WATERS...

STATION/POSITION TIME  SKY/WX   TEMP    WIND        PRES    WAVE
                                AIR SEA DIR/SP/G            HT/PER
                 (UTC)          (F)     (DEG/KT/KT) (MB)    (FT/S)
PULASKI SHOAL LI 0800            84     170/  3/  4 1015.3S
SAND KEY         0850            84     160/  8/  9 1015.2F
SOMBRERO KEY     0900            84     170/  8/  8 1015.9F
LONG KEY         0800            84 86  190/  9/ 10 1016.2F
MOLASSES REEF    0900            84 87  170/ 10/ 12 1015.1F
FOWEY ROCKS      NOT AVBL

$$


USA.gov is the U.S. government's official web portal to all federal, state and local government web resources and services.